Home > Weather > Aachen > Past weeks

Flag for Germany Past Weather in Aachen, North Rhine-Westphalia, Germany — Yesterday and Last 2 Weeks

Now
64 °F

Sunny.


Feels Like: 64 °F
Forecast: 65 / 88 °F
Wind: 5 mph from East

Location: Geilenkirchen Airport

Current Time: Aug 24, 2016 at 8:56:08 AM

Latest Report: Aug 24, 2016 at 7:50 AM


Visibility: 10 mi

Pressure: 30.18 "Hg

Humidity: 73%

Dew Point: 55 °F

Location of AachenLocation

Past Weather in Aachen — Graph

°F

Aachen Temperature Yesterday

Maximum temperature yesterday: 86 °F (at 4:50 PM)
Minimum temperature yesterday: 57 °F (at 5:50 AM)
Average temperature yesterday: 71 °F

High & Low Weather Summary for the Past Weeks

 TemperatureHumidityPressure
High86 °F (Aug 23, 4:50 PM)100% (Aug 10, 6:50 AM)30.36 "Hg (Aug 10, 6:50 AM)
Low48 °F (Aug 11, 4:50 AM)37% (Aug 17, 4:50 PM)29.80 "Hg (Aug 18, 5:50 AM)
Average63 °F76%30.11 "Hg
* Reported Aug 9 6:50 AM — Aug 24 6:50 AM, Aachen, Weather by CustomWeather, © 2016

Note: Actual official high and low records may vary slightly from our data, if they occured in-between our weather recording intervals... More about our weather records

Advertising

Aachen Weather History for the Previous 24 Hours

Scroll right to see more
 ConditionsComfort  
Time TempWeatherWind HumidityBarometerVisibility
6:50 AM
Wed, Aug 24
59 °FClear.5 mph82%30.18 "Hg10 mi
5:50 AM59 °FClear.8 mph88%30.18 "Hg10 mi
4:50 AM59 °FClear.3 mph88%30.18 "Hg10 mi
3:50 AM59 °FClear.5 mph88%30.21 "Hg10 mi
2:50 AM66 °FClear.5 mph78%30.21 "Hg10 mi
1:50 AM68 °FClear.5 mph73%30.21 "Hg10 mi
12:50 AM70 °FClear.3 mph69%30.21 "Hg10 mi
11:50 PM
Tue, Aug 23
66 °FClear.No wind78%30.24 "Hg10 mi
10:50 PM66 °FClear.3 mph78%30.24 "Hg10 mi
9:50 PM68 °FClear.5 mph73%30.24 "Hg10 mi
8:50 PM73 °FSunny.5 mph65%30.24 "Hg10 mi
7:50 PM81 °FSunny.5 mph51%30.24 "Hg10 mi
6:50 PM82 °FSunny.5 mph48%30.24 "Hg10 mi
5:50 PM84 °FSunny.5 mph48%30.27 "Hg10 mi
4:50 PM86 °FSunny.2 mph43%30.27 "Hg10 mi
3:50 PM84 °FSunny.3 mph45%30.30 "Hg10 mi
2:50 PM82 °FSunny.6 mph48%30.30 "Hg10 mi
1:50 PM81 °FSunny.3 mph51%30.33 "Hg10 mi
12:50 PM79 °FSunny.8 mph51%30.33 "Hg10 mi
11:50 AM77 °FSunny.7 mph57%30.33 "Hg10 mi
10:50 AM75 °FSunny.5 mph57%30.33 "Hg10 mi
9:50 AM73 °FSunny.5 mph61%30.36 "Hg10 mi
8:50 AM68 °FSunny.3 mph78%30.36 "Hg10 mi
Weather by CustomWeather, © 2016

See weather overviewHow to use our weather pages